Regional Weather Roundup
Issued by NWS

Home | Current Version | Previous Version | Text Only | Print | Product List | Glossary Off
Versions: 1 2 3 4 5 6 7 8 9 10 11 12 13 14 15 16 17 18 19 20 21 22 23 24 25 26 27 28 29 30 31 32 33 34 35 36 37 38 39 40 41 42 43 44 45 46 47 48 49 50

000
ASUS43 KFSD 151502
RWRSD

WEATHER ROUNDUP FOR SOUTH DAKOTA
NATIONAL WEATHER SERVICE SIOUX FALLS SD
900 AM CST FRI DEC 15 2017

NOTE: "FAIR" INDICATES FEW OR NO CLOUDS BELOW 12,000 FEET WITH NO
SIGNIFICANT WEATHER AND/OR OBSTRUCTIONS TO VISIBILITY.


SDZ001>005-009-010-012>017-151600-
NORTHWEST AND NORTH CENTRAL SOUTH DAKOTA

CITY           SKY/WX    TMP DP  RH WIND       PRES   REMARKS
BUFFALO          N/A     32  22  66 SW9       29.70F WCI  24
FAITH            N/A     27  22  81 SW10      29.78F WCI  17
MOBRIDGE       CLOUDY    30  24  78 S3        29.78F
$$

SDZ012>016-024>037-041>051-057-063-072>074-151600-
SOUTHWEST AND SOUTH CENTRAL SOUTH DAKOTA

CITY           SKY/WX    TMP DP  RH WIND       PRES   REMARKS
RAPID CTY ARPT CLOUDY    27  16  63 VRB5      29.82F WCI  22
PIERRE         PTCLDY    26  22  84 SW5       29.84F WCI  20
CUSTER         CLOUDY    36   6  28 W8        29.83F
ELLSWORTH AFB  CLOUDY    27  17  65 W6        29.80F WCI  20
PHILIP         CLOUDY    25  20  81 W12       29.84F WCI  14
PINE RIDGE     CLOUDY    27  17  66 W8        29.91R WCI  19
SPEARFISH      FAIR      41  14  33 W15       29.83S
WINNER         FAIR      29  21  72 S10       29.87F WCI  20
$$

SDZ004>011-016>023-039-040-151600-
NORTHEAST SOUTH DAKOTA

CITY           SKY/WX    TMP DP  RH WIND       PRES   REMARKS
ABERDEEN       CLOUDY    29  26  89 SW3       29.82F
WATERTOWN      CLOUDY    28  26  92 SW7       29.82F WCI  21
BROOKINGS      CLOUDY    29  27  92 W8        29.87R WCI  21
SISSETON         N/A     24  22  91 SE6       29.83F WCI  17
$$

SDZ017-020-022-023-036>040-048>070-151600-
SOUTHEAST SOUTH DAKOTA

CITY           SKY/WX    TMP DP  RH WIND       PRES   REMARKS
SIOUX FALLS    CLOUDY    32  27  81 W8        29.90S WCI  25
HURON          MOCLDY    31  25  78 SW6       29.85F WCI  25
CHAMBERLAIN    CLOUDY    28  25  91 CALM      29.87F
MITCHELL       PTCLDY    30  24  78 W10       29.91S WCI  21
YANKTON        CLOUDY    32  25  75 SW10      29.92F WCI  24
$$

ABBREVIATIONS USED IN REMARKS
   TC - TEMPERATURE IN CELSIUS
  WCI - WIND CHILL INDEX
   HX - HEAT INDEX
  VSB - VISIBILITY





USA.gov is the U.S. government's official web portal to all federal, state and local government web resources and services.